K5RG-3 Weather Reports


time (UTC)temp
F
wind
direction
speed
knots
gust
knots
rain 1hr
in
rain 24hr
in
rain mn
in
humidity
%
barometer
mb
20260906003021 85 107 0.0 0.9 0.00 0.00 0.00 82 1009.6
20260906001512 86 100 0.0 2.6 0.00 0.00 0.00 81 1009.8
20260906000012 86 104 0.0 0.9 0.00 0.00 0.00 82 1010.1
20260905234511 86 119 0.0 1.7 0.00 0.00 0.00 81 1010.1
20260905233012 86 60 0.0 1.7 0.00 0.00 0.00 81 1009.9
20260905231511 87 123 0.0 2.6 0.00 0.00 0.00 81 1009.7
20260905230012 87 108 0.0 0.9 0.00 0.00 0.00 80 1009.8
20260905224509 87 127 0.0 1.7 0.00 0.00 0.00 80 1009.8
20260905223028 87 113 0.0 2.6 0.00 0.00 0.00 79 1009.8
20260905221527 88 119 0.0 4.3 0.00 0.00 0.00 78 1009.7
20260905220008 88 79 0.0 2.6 0.00 0.00 0.00 76 1009.6
20260905214506 89 96 0.9 6.1 0.00 0.00 0.00 73 1009.6
20260905213005 90 142 0.0 0.0 0.00 0.00 0.00 68 1009.8
20260905211512 91 142 0.0 0.0 0.00 0.00 0.00 67 1009.8
20260905210005 91 142 0.0 0.0 0.00 0.00 0.00 68 1009.9
20260905204501 91 245 0.0 1.7 0.00 0.00 0.00 68 1010.1
20260905203058 90 171 0.0 0.9 0.00 0.00 0.00 71 1010.3
20260905201603 89 217 0.0 1.7 0.00 0.00 0.00 74 1010.4
20260905200113 88 182 0.0 1.7 0.00 0.00 0.00 75 1010.5
20260905194552 88 192 0.0 0.9 0.00 0.37 0.00 76 1010.4
20260905193051 87 182 0.0 0.9 0.00 0.37 0.00 76 1010.6
20260905191552 87 182 0.0 1.7 0.00 0.37 0.00 77 1011.0
20260905190051 88 67 0.0 1.7 0.00 0.37 0.00 77 1011.3
20260905184552 88 147 0.0 1.7 0.00 0.39 0.00 76 1011.3
20260905183050 87 85 0.0 1.7 0.00 0.39 0.00 77 1011.5
20260905181548 86 86 0.0 2.6 0.00 0.39 0.00 79 1011.7
20260905180046 84 225 0.0 2.6 0.00 0.39 0.00 80 1012.0
20260905174544 84 154 0.0 3.5 0.00 0.39 0.00 80 1012.2
20260905173044 83 102 0.0 6.1 0.00 0.39 0.00 77 1012.7
20260905171557 84 334 1.7 7.8 0.00 0.39 0.00 76 1012.9
20260905170042 86 211 0.0 4.3 0.00 0.39 0.00 80 1013.0
20260905164541 86 171 0.9 5.2 0.00 0.39 0.00 77 1012.8
20260905163038 86 246 0.9 5.2 0.00 0.39 0.00 76 1012.6
20260905161540 86 56 4.3 8.7 0.00 0.39 0.00 78 1012.5
20260905160044 87 83 2.6 9.6 0.00 0.39 0.00 79 1012.5
20260905154548 89 292 0.9 3.5 0.00 0.39 0.00 76 1012.4
20260905153031 88 248 0.9 3.5 0.00 0.39 0.00 78 1012.3
20260905151531 88 40 0.9 3.5 0.00 0.39 0.00 79 1012.3
20260905150028 88 60 0.9 3.5 0.00 0.39 0.00 79 1012.3
20260905144537 87 15 0.0 2.6 0.00 0.39 0.00 81 1012.4
20260905143024 87 319 0.0 2.6 0.00 0.39 0.00 80 1012.3
20260905141524 86 325 0.0 1.7 0.00 0.39 0.00 83 1012.3
20260905140016 85 21 0.0 1.7 0.00 0.39 0.00 86 1012.2
20260905134512 83 319 0.0 1.7 0.00 0.39 0.00 89 1012.0
20260905133009 82 2 0.0 1.7 0.00 0.39 0.00 91 1012.2
20260905131505 81 20 0.9 2.6 0.00 0.39 0.00 93 1012.0
20260905130003 80 315 0.0 0.0 0.00 0.39 0.00 94 1011.9
20260905124503 79 315 0.0 0.0 0.00 0.39 0.00 94 1011.7
20260905123105 79 315 0.0 0.0 0.00 0.39 0.00 94 1011.5
20260905121556 78 315 0.0 0.0 0.00 0.39 0.00 94 1011.5
20260905120055 78 315 0.0 0.0 0.00 0.39 0.00 94 1011.2
20260905114608 79 315 0.0 0.0 0.00 0.39 0.00 94 1011.1
20260905113053 79 289 0.0 0.0 0.00 0.39 0.00 94 1011.0
20260905111605 79 289 0.0 0.0 0.00 0.39 0.00 94 1010.8
20260905110049 78 267 0.0 0.0 0.00 0.39 0.00 94 1010.6
20260905104551 78 267 0.0 0.0 0.00 0.39 0.00 93 1010.7
20260905103050 79 267 0.0 0.0 0.00 0.39 0.00 93 1010.6
20260905101546 79 267 0.0 0.0 0.00 0.39 0.00 93 1010.6
20260905100049 79 267 0.0 0.0 0.00 0.39 0.00 93 1010.7
20260905094600 79 267 0.0 0.0 0.00 0.39 0.00 93 1010.7
20260905093046 79 267 0.0 0.0 0.00 0.39 0.00 93 1010.6
20260905091547 79 267 0.0 0.0 0.00 0.39 0.00 93 1010.5
20260905090043 79 267 0.0 0.0 0.00 0.39 0.00 92 1010.6
20260905084545 79 267 0.0 0.0 0.00 0.39 0.00 92 1010.4
20260905083041 79 267 0.0 0.0 0.00 0.39 0.00 92 1010.3
20260905081543 79 267 0.0 0.0 0.00 0.39 0.00 92 1010.3
20260905080051 79 267 0.0 0.0 0.00 0.39 0.00 92 1010.4
20260905074538 79 267 0.0 0.0 0.00 0.39 0.00 92 1010.4
20260905073044 80 267 0.0 0.0 0.00 0.39 0.00 91 1010.5
20260905071535 80 267 0.0 0.0 0.00 0.39 0.00 91 1010.7
20260905070043 80 267 0.0 1.7 0.00 0.39 0.00 91 1010.9
20260905064531 80 267 0.0 1.7 0.00 0.39 0.00 91 1011.1
20260905063029 80 151 0.0 0.0 0.00 0.39 0.00 91 1011.1
20260905061547 81 152 0.0 0.0 0.00 0.39 0.00 91 1011.2
20260905060028 81 151 0.0 0.0 0.00 0.39 0.00 90 1011.2
20260905054529 81 151 0.0 0.0 0.00 0.39 0.00 90 1011.3
20260905053027 81 151 0.0 0.0 0.00 0.39 0.00 89 1011.2
20260905051532 82 151 0.0 0.0 0.00 0.39 0.00 89 1011.3
20260905050023 82 151 0.0 0.0 0.00 0.39 0.00 89 1011.2
20260905044524 82 151 0.0 0.0 0.00 0.39 0.39 89 1011.4
20260905043135 82 151 0.0 0.0 0.00 0.39 0.39 89 1011.3
20260905041520 82 151 0.0 0.0 0.00 0.39 0.39 89 1011.5
20260905040021 82 151 0.0 0.0 0.00 0.39 0.39 88 1011.6
20260905034526 83 151 0.0 0.0 0.00 0.39 0.39 88 1011.7
20260905033018 83 151 0.0 0.0 0.00 0.39 0.39 88 1011.5
20260905031518 83 151 0.0 0.0 0.00 0.39 0.39 88 1011.8
20260905030018 83 151 0.0 0.0 0.00 0.39 0.39 87 1011.8
20260905024517 83 151 0.0 0.0 0.00 0.39 0.39 86 1011.6
20260905023017 84 151 0.0 0.0 0.00 0.39 0.39 85 1011.5
20260905021515 84 151 0.0 0.0 0.00 0.39 0.39 84 1011.4
20260905020016 84 151 0.0 0.0 0.00 0.39 0.39 84 1011.1
20260905014519 85 151 0.0 0.0 0.00 0.39 0.39 83 1011.0
20260905013014 85 151 0.0 0.0 0.00 0.39 0.39 82 1010.9
20260905011514 85 151 0.0 0.0 0.00 0.39 0.39 81 1010.8
20260905010018 86 151 0.0 0.0 0.00 0.39 0.39 80 1010.6
20260905004514 86 151 0.0 0.9 0.00 0.39 0.39 80 1010.5